User: anonymous   Login
Location: Unspecified
(0.0000°N, 0.0000°E)
Time: 02:31:58
(UTC+00:00)
Language:

GONETS M 07 - Orbit

View from above orbital plane
View from above orbital plane
View from above satellite
View from above satellite

Ground track
Ground track

The orbit data is extracted from the following two-line orbital elements,

1 39251U 13048C   24106.50888884  .00000045  00000-0  25533-3 0  9998
2 39251  82.4838 120.0303 0018157 139.2254 221.0189 12.42870471480362
Epoch (UTC): 15 April 2024 12:12:47
Eccentricity: 0.0018157
inclination: 82.4838°
perigee height: 1480 km
apogee height: 1509 km
right ascension of ascending node: 120.0303°
argument of perigee: 139.2254°
revolutions per day: 12.42870471
mean anomaly at epoch: 221.0189°
orbit number at epoch: 48036

The dashed part of the orbit path shows where the satellite is in the earth's shadow,  

DLR